Regional Weather Roundup
Issued by NWS Cleveland, OH

Home | Current Version | Previous Version | Graphics & Text | Print | Product List | Glossary On
Versions: 1 2 3 4 5 6 7 8 9 10 11 12 13 14 15 16 17 18 19 20 21 22 23 24 25 26 27 28 29 30 31 32 33 34 35 36 37 38 39 40 41 42 43 44 45 46 47 48 49 50
000
ASUS41 KCLE 251710
RWRCLE
OHIO REGIONAL WEATHER ROUNDUP
NATIONAL WEATHER SERVICE WILMINGTON, OH
1200 PM EST SUN JAN 25 2015

NOTE: "FAIR" INDICATES FEW OR NO CLOUDS BELOW 12,000 FEET WITH NO
SIGNIFICANT WEATHER AND/OR OBSTRUCTIONS TO VISIBILITY.

OHZ001>008-015>018-024>027-034-035-043-044-251800-
   NORTHWEST OHIO

CITY           SKY/WX    TMP DP  RH WIND       PRES   REMARKS
DEFIANCE       LGT SNOW  27  22  81 NE15G24   29.82F WCI  15
FINDLAY        LGT SNOW  30  25  81 NE22G31   29.79F WCI  17
TOLEDO EXPRESS LGT SNOW  25  21  86 E14G25    29.86S VSB 1   WCI  13
TOLEDO EXEC    LGT SNOW  25  20  81 NE16G25   29.88F WCI  12
LIMA           CLOUDY    32  28  85 NE17G23   29.76F FOG     WCI  21
$$

OHZ009>014-019>023-028>033-038-089-251800-
   NORTHEAST OHIO

CITY           SKY/WX    TMP DP  RH WIND       PRES   REMARKS
CLE-HOPKINS    LGT SNOW  22  18  85 N16       29.89S BLWGSNOWWCI   8
CLE-LAKEFRONT  FLURRIES  23  17  78 NE16      29.88S WCI  10
CUY CO. ARPT   CLOUDY    23  21  93 NE14      29.88R WCI  11
LORAIN-ELYRIA  LGT SNOW  22  19  89 NE17      29.86F FOG     WCI   8
ASHTABULA      CLOUDY    23  15  71 NE5       29.87S WCI  17
AKRON-CANTON   LGT SNOW  31  27  85 NE13      29.80F VSB 1   WCI  21
WOOSTER        LGT SNOW  31  29  92 NE14      29.80F FOG     WCI  21
MANSFIELD      CLOUDY    30  28  92 NE12      29.78F WCI  20
YOUNGSTOWN     FLURRIES  28  23  81 N10       29.82S WCI  19
$$

OHZ042-051>053-060>062-070>072-077>081-251800-
  SOUTHWEST OHIO

CITY           SKY/WX    TMP DP  RH WIND       PRES   REMARKS
CINC-COVINGTON CLOUDY    41  32  70 S8        29.71F
CINC-LUNKEN    CLOUDY    40  32  73 VRB3      29.74F
HAMILTON       LGT RAIN  39  35  86 SE5       29.73F
DAYTON         LGT RAIN  37  34  89 E7        29.73F FOG
WRIGHT-PAT AFB LGT RAIN  38  34  87 E6        29.73F
DAYTON GENERAL CLOUDY    38  34  85 SE7       29.71F
WILMINGTON     LGT RAIN  37  33  85 SE6       29.73F
$$

OHZ036-037-039>041-045>050-054>059-063>069-073>076-082>088-251800-
  CENTRAL AND SOUTHEAST OHIO

CITY           SKY/WX    TMP DP  RH WIND       PRES   REMARKS
COLUMBUS       LGT SNOW  35  32  88 S5        29.78S
OSU AIRPORT    LGT SNOW  33  31  92 S3        29.78R VSB 3/4
BOLTON FIELD   NOT AVBL
RICKENBACK AFB LGT RAIN  36  33  89 S3        29.78S
NEWARK         LGT RAIN  37  33  85 SE3       29.77F FOG
MARION         CLOUDY    33  31  92 NE12      29.78S FOG     WCI  24
LANCASTER      MIX PCPN  36  33  89 SE5       29.79S FOG
ZANESVILLE     MIX PCPN  35  32  88 SE5       29.79F FOG
NEW PHILLY     CLOUDY    36  31  82 E3        29.80F HAZE
$$



USA.gov is the U.S. government's official web portal to all federal, state and local government web resources and services.